Wind_Speed
23 21 27 33 38 42 43 44 45 47 50 55 62 70 79 87 95 102 108 111 112 111 108 103 100 96 91 87 83 81 76 72 69 67 65 63 62 62
19 14 17 24 31 36 40 41 43 45 47 52 57 64 72 79 86 94 101 106 109 110 108 105 101 98 94 90 85 82 79 76 70 68 66 63 62 61
16 8 9 16 23 29 35 38 40 42 44 49 54 59 66 72 79 87 94 101 106 108 108 107 104 100 97 93 88 83 82 78 72 69 67 66 63 61
14 6 1 8 15 22 28 33 37 40 41 45 50 55 61 67 74 80 87 94 100 104 106 106 105 102 99 96 92 87 82 78 75 69 65 66 65 62
13 8 3 4 9 16 22 27 32 37 39 42 47 52 58 62 68 75 81 88 94 101 103 105 105 103 100 97 95 91 86 82 77 72 65 62 63 60
12 7 3 2 7 13 18 22 27 33 36 39 44 50 55 59 63 69 75 81 88 95 100 102 103 101 100 98 95 94 89 85 80 75 68 62 58 56
12 7 3 1 6 10 15 18 23 29 33 36 41 46 52 56 60 65 70 76 82 89 95 99 99 99 99 97 95 94 92 88 83 78 73 66 59 55
13 8 4 2 5 9 13 17 21 25 30 33 38 43 49 53 57 62 67 73 78 84 89 93 94 96 97 95 94 93 92 89 85 79 76 71 65 58
16 10 6 4 4 8 12 16 19 23 27 31 35 41 46 50 54 58 63 70 75 80 84 89 92 93 94 93 92 91 91 88 86 82 77 73 68 62
19 13 8 6 5 7 11 15 18 21 25 29 34 39 44 49 52 56 60 66 72 76 80 83 89 91 91 91 90 88 88 87 84 81 78 74 70 65
22 16 11 7 7 7 10 13 17 20 23 27 32 37 43 47 51 54 57 62 68 73 76 79 83 88 87 86 85 84 84 83 83 80 78 75 71 67
28 20 14 9 7 8 9 12 16 19 22 26 30 35 41 45 49 53 55 58 63 69 74 76 77 82 83 83 83 82 81 81 80 79 77 74 71 68
33 26 19 13 8 7 9 12 15 18 21 25 29 34 39 44 48 52 54 56 59 64 69 73 75 78 79 79 81 79 80 79 78 77 74 72 70 66
36 30 23 16 10 6 7 11 14 17 20 24 28 33 38 43 47 50 53 54 56 59 65 70 73 75 75 75 75 75 76 77 77 75 73 71 69 66
38 33 27 20 13 7 5 9 13 16 20 23 27 32 37 42 45 49 51 53 54 55 58 63 69 73 74 73 72 71 73 74 74 74 73 70 68 66
39 35 30 24 17 10 5 6 11 15 18 22 26 31 36 40 44 47 50 51 53 53 55 58 62 69 72 73 73 69 69 70 72 73 72 70 67 65
40 37 32 27 20 13 7 4 8 13 17 21 25 30 34 39 43 46 48 50 51 52 53 55 57 62 67 71 72 70 67 68 69 70 70 69 68 66
40 37 34 29 23 17 10 3 5 10 15 20 24 29 33 38 41 45 47 49 50 51 52 53 54 57 61 66 71 69 67 66 66 67 68 68 67 66
40 37 34 30 25 19 13 5 2 8 14 19 24 28 32 36 40 44 47 48 50 50 50 51 53 54 55 58 64 68 67 66 65 65 66 66 65 64
40 37 34 31 26 21 15 7 1 6 12 17 22 27 31 35 39 43 46 48 49 49 49 50 51 51 52 54 58 62 65 65 64 64 65 66 65 63
40 38 35 31 27 22 16 9 2 4 10 16 21 26 30 34 37 41 44 46 47 48 48 49 51 51 50 52 54 57 60 62 62 63 63 63 63 63
40 38 35 31 26 22 17 11 4 4 9 15 20 25 29 32 36 40 42 44 46 47 48 49 50 51 50 50 51 53 55 58 60 60 62 61 61 61
40 38 36 31 27 22 17 11 5 3 8 13 18 23 28 32 35 38 41 42 44 45 46 47 49 50 50 49 50 51 52 55 56 58 59 59 59 59
Wind_Direction
306 272 247 235 230 228 226 225 224 223 224 222 219 217 216 215 214 212 211 210 209 209 209 210 211 211 211 212 213 214 216 218 221 223 226 226 226 226
324 287 246 232 226 224 223 222 221 221 221 221 219 216 215 214 213 212 211 209 209 208 208 209 210 210 211 211 212 213 215 218 220 222 222 223 225 226
343 315 247 226 221 219 219 219 219 218 219 220 218 216 213 213 212 212 211 209 208 207 207 208 209 209 210 211 211 212 215 217 220 220 221 222 222 223
7 11 241 214 215 214 215 217 217 216 217 218 217 215 212 211 211 211 210 209 208 206 207 207 208 209 210 211 211 211 213 215 217 218 220 222 221 221
23 38 72 182 204 209 212 215 215 215 216 216 216 214 211 210 209 209 208 208 207 206 206 207 208 209 210 211 211 212 213 215 217 218 220 221 220 221
25 36 55 177 200 204 210 214 214 214 214 215 215 213 211 208 208 207 207 206 206 206 206 206 208 209 210 211 212 213 213 215 218 219 221 221 221 221
19 29 22 253 212 209 211 213 214 213 213 213 213 212 210 208 207 206 206 205 204 205 206 206 207 209 210 211 212 213 214 215 217 219 221 222 221 220
7 7 1 305 227 218 215 214 213 212 211 211 211 210 208 207 206 205 204 204 203 203 204 204 205 208 209 211 212 213 214 215 216 218 221 224 224 224
359 350 336 305 256 229 219 215 212 211 210 209 209 208 207 205 204 204 203 202 202 202 203 203 204 206 209 209 212 214 214 216 217 218 220 223 225 225
2 353 336 303 272 241 222 215 211 210 209 209 208 207 206 203 202 202 201 201 201 202 202 202 203 205 207 209 211 214 215 216 217 218 220 221 224 226
2 356 342 314 282 254 230 217 211 209 209 208 207 206 205 203 201 200 200 200 201 201 201 202 203 203 205 207 208 212 213 214 216 217 220 220 222 224
6 359 348 329 294 262 237 220 213 209 207 207 205 204 203 202 201 200 199 199 200 201 201 202 202 203 204 206 207 209 212 213 214 215 217 219 221 222
8 4 356 344 321 279 242 224 216 210 207 205 204 203 201 200 199 199 199 199 200 201 202 203 203 204 205 205 207 210 211 212 214 215 216 218 219 220
9 7 3 355 338 306 251 227 218 211 207 205 203 201 200 199 198 197 197 198 199 200 202 204 205 205 204 204 205 208 211 213 214 214 215 217 218 219
10 9 7 3 353 329 274 232 218 211 208 205 202 200 198 197 196 196 196 197 198 199 200 204 206 206 206 205 205 207 209 210 212 213 214 216 217 218
10 10 9 8 3 349 310 244 221 212 208 205 201 198 196 195 195 195 195 196 197 198 199 201 205 208 209 208 206 205 207 208 211 212 213 215 215 216
10 10 10 9 8 3 343 270 222 212 207 203 199 196 194 194 194 194 194 194 195 196 197 199 201 206 209 210 209 207 207 208 210 212 213 215 216 217
9 9 10 10 9 7 1 328 222 207 204 200 197 195 193 192 192 192 192 193 194 194 196 198 200 203 206 209 211 209 209 210 211 212 213 215 217 218
7 8 9 9 11 10 9 3 228 202 198 197 195 193 192 191 191 191 192 192 192 193 195 196 197 199 202 206 209 211 210 210 211 211 212 214 216 217
6 7 7 9 10 12 12 13 23 192 192 191 192 192 191 190 190 190 191 192 191 192 193 195 195 196 199 203 208 210 211 210 211 211 212 214 215 215
6 6 6 7 10 12 14 17 37 172 183 187 189 190 190 190 190 190 190 191 192 192 193 194 195 196 198 201 204 207 210 210 210 211 212 214 216 217
5 6 6 7 9 11 14 18 37 156 176 182 185 187 188 189 189 189 190 190 191 192 193 194 194 195 196 198 200 204 207 209 210 211 213 214 217 218
4 5 6 7 7 9 12 16 30 141 173 179 183 185 188 189 189 189 189 190 191 192 193 194 194 195 194 194 196 198 202 205 207 209 209 211 213 214
Height
5279 5277 5280 5286 5294 5303 5313 5322 5330 5338 5345 5354 5364 5376 5390 5407 5425 5444 5465 5487 5510 5532 5553 5573 5592 5610 5627 5642 5657 5671 5683 5693 5703 5714 5723 5733 5742 5751
5274 5272 5274 5279 5286 5294 5303 5312 5320 5328 5336 5344 5354 5365 5379 5394 5411 5429 5449 5471 5493 5515 5537 5557 5576 5594 5612 5628 5643 5657 5670 5681 5690 5700 5710 5721 5731 5740
5274 5272 5273 5276 5281 5288 5296 5304 5312 5321 5328 5336 5345 5356 5369 5383 5399 5416 5435 5455 5477 5499 5520 5540 5560 5579 5597 5613 5629 5644 5656 5667 5678 5688 5699 5709 5719 5729
5277 5275 5275 5277 5280 5285 5291 5298 5306 5314 5322 5329 5337 5348 5360 5374 5388 5405 5423 5442 5463 5484 5505 5525 5545 5563 5582 5599 5614 5630 5643 5655 5666 5677 5687 5698 5709 5718
5282 5279 5279 5279 5281 5285 5289 5295 5301 5309 5316 5323 5331 5341 5353 5365 5380 5395 5412 5430 5450 5470 5491 5511 5530 5549 5567 5584 5600 5616 5630 5644 5655 5667 5676 5686 5698 5708
5286 5284 5283 5282 5283 5285 5289 5293 5298 5305 5311 5318 5326 5335 5346 5358 5372 5386 5403 5420 5439 5459 5478 5497 5516 5535 5553 5570 5588 5604 5617 5630 5643 5655 5667 5677 5688 5697
5291 5288 5286 5285 5285 5286 5289 5292 5296 5301 5308 5314 5321 5330 5340 5352 5365 5378 5394 5410 5428 5446 5465 5485 5505 5524 5540 5557 5572 5588 5604 5618 5632 5645 5657 5668 5678 5688
5294 5291 5288 5287 5286 5287 5288 5291 5294 5299 5305 5310 5317 5325 5335 5346 5358 5371 5386 5402 5420 5438 5455 5474 5492 5509 5526 5543 5559 5575 5591 5606 5621 5634 5647 5659 5669 5680
5297 5293 5290 5288 5287 5287 5288 5290 5293 5297 5302 5307 5314 5321 5330 5341 5353 5366 5379 5394 5411 5428 5444 5462 5480 5497 5514 5531 5547 5563 5579 5594 5609 5624 5637 5649 5660 5671
5298 5294 5291 5288 5287 5286 5287 5289 5292 5295 5300 5305 5311 5318 5326 5336 5348 5361 5374 5388 5404 5419 5434 5452 5469 5486 5503 5520 5537 5552 5568 5584 5598 5613 5626 5638 5650 5661
5300 5295 5291 5289 5287 5286 5286 5288 5290 5293 5297 5302 5308 5314 5323 5333 5344 5356 5369 5382 5397 5412 5426 5443 5459 5476 5493 5510 5526 5541 5556 5572 5587 5602 5615 5628 5640 5651
5301 5296 5291 5288 5286 5285 5285 5287 5289 5292 5295 5300 5305 5312 5320 5329 5340 5352 5364 5377 5390 5405 5419 5434 5449 5465 5482 5498 5515 5530 5545 5561 5576 5591 5604 5617 5629 5641
5304 5297 5292 5288 5285 5284 5284 5285 5287 5290 5293 5298 5303 5309 5317 5326 5336 5348 5360 5372 5385 5399 5412 5426 5441 5456 5472 5489 5505 5520 5535 5550 5565 5580 5594 5607 5619 5632
5307 5299 5293 5288 5285 5283 5283 5284 5285 5288 5292 5296 5301 5307 5314 5323 5333 5344 5356 5368 5380 5394 5406 5420 5433 5448 5463 5479 5495 5510 5524 5540 5555 5570 5584 5596 5609 5622
5310 5302 5295 5289 5285 5283 5282 5282 5284 5286 5290 5294 5298 5304 5311 5320 5330 5340 5352 5364 5376 5389 5401 5414 5426 5441 5455 5471 5486 5500 5515 5530 5545 5559 5573 5587 5600 5612
5312 5304 5297 5291 5286 5283 5282 5282 5283 5285 5287 5291 5296 5302 5309 5317 5327 5337 5348 5360 5372 5385 5396 5408 5420 5434 5448 5462 5477 5492 5506 5521 5535 5550 5564 5577 5590 5602
5315 5307 5299 5293 5288 5284 5282 5281 5281 5283 5286 5289 5294 5300 5307 5315 5324 5334 5345 5356 5368 5380 5392 5403 5415 5428 5441 5455 5469 5483 5498 5512 5526 5541 5554 5567 5580 5592
5318 5310 5302 5295 5289 5285 5282 5281 5281 5282 5285 5288 5293 5299 5305 5313 5322 5332 5342 5353 5365 5376 5388 5399 5411 5423 5435 5448 5461 5476 5489 5503 5517 5531 5545 5557 5570 5582
5320 5312 5304 5297 5291 5286 5283 5281 5281 5282 5284 5287 5292 5298 5304 5312 5320 5329 5339 5350 5361 5373 5384 5395 5406 5418 5429 5442 5453 5467 5482 5496 5509 5522 5535 5547 5560 5573
5322 5314 5306 5299 5293 5288 5284 5282 5281 5282 5284 5287 5292 5297 5304 5311 5319 5327 5337 5347 5358 5369 5380 5391 5402 5413 5424 5436 5448 5461 5474 5488 5500 5513 5525 5537 5550 5563
5324 5316 5308 5301 5295 5289 5286 5283 5282 5282 5284 5287 5292 5297 5303 5310 5318 5326 5335 5345 5355 5366 5376 5387 5398 5409 5419 5430 5442 5453 5466 5479 5491 5504 5517 5529 5542 5553
5326 5317 5309 5302 5296 5291 5287 5284 5283 5283 5285 5288 5292 5297 5303 5309 5317 5325 5334 5343 5353 5363 5373 5383 5393 5404 5414 5425 5436 5447 5459 5471 5483 5495 5508 5522 5534 5547
5327 5318 5310 5303 5297 5292 5288 5285 5284 5284 5285 5288 5292 5297 5302 5309 5316 5324 5332 5341 5350 5359 5369 5379 5389 5399 5409 5419 5430 5441 5452 5464 5475 5487 5499 5511 5523 5534